Location: Heppenheim
(49.6410°N, 8.6370°E)
Time: 17:07:17
(UTC+02:00)

ISS - Pass Details

Date: 15 May 2026
Orbit: 414 x 424 km, 51.6° (Epoch: 10 May)

Event Time Altitude Azimuth Distance (km) Brightness Sun altitude
Rises 21:44:05 0° 265° (W) 2,349 0.8 -6.2°
Reaches altitude 10° 21:46:11 10° 268° (W) 1,488 -0.2 -6.4°
Maximum altitude 21:49:30 65° 351° (N) 460 -3.3 -6.9°
Drops below altitude 10° 21:52:50 10° 74° (ENE) 1,492 -1.3 -7.3°
Sets 21:54:57 0° 78° (ENE) 2,357 -0.3 -7.5°
